Flag for Germany Weather past 2 weeks in Bad Nauheim, Hesse, Germany

Now
82 °F

Sunny.


Feels Like: 81 °F
Forecast: 64 / 82 °F
Wind: 1 mph from Southwest

Location: Giessen

Current Time: Aug 3, 2015 at 10:16:38 PM

Latest Report: Aug 3, 2015 at 9:00 PM


Visibility: 41 mi

Pressure: 29.92 "Hg

Humidity: 31%

Dew point: 48 °F

Location of Bad NauheimLocation

Historic Weather in Bad Nauheim — Graph

°F

Bad Nauheim temperature yesterday

Maximum temperature yesterday: 83 °F (at 5:00 PM)
Minimum temperature yesterday: 54 °F (at 6:00 AM)
Average temperature yesterday: 70 °F

Past Weeks' High & Low Weather Summary

 TemperatureHumidityPressure
High90 °F (Aug 3, 6:00 PM)98% (Jul 20, 6:00 AM)30.14 "Hg (Jul 20, 6:00 AM)
Low48 °F (Jul 30, 4:00 AM)23% (Aug 3, 6:00 PM)29.59 "Hg (Jul 27, 10:00 AM)
Average66 °F63%29.90 "Hg
* Reported Jul 19 9:00 PM — Aug 3 9:00 PM, Bad Nauheim, Weather by CustomWeather, © 2015

Note: Actual official high and low records may vary slightly from our data, if they occured in-between our weather recording intervals... More about our weather records

Advertising

Bad Nauheim weather history for previous 24 hours

 ConditionsComfort  
Time TempWeatherWind HumidityBarometerVisibility
9:00 PM
Mon, Aug 3
82 °FSunny.1 mph31%29.92 "Hg40 mi
8:00 PM86 °FPassing clouds.3 mph25%29.92 "Hg43 mi
7:00 PM89 °FSunny.5 mph24%29.92 "Hg37 mi
6:00 PM90 °FSunny.3 mph23%29.92 "Hg28 mi
5:00 PM89 °FSunny.6 mph24%29.94 "Hg19 mi
4:00 PM89 °FSunny.3 mph28%29.96 "Hg19 mi
3:00 PM87 °FSunny.5 mph28%29.97 "Hg22 mi
2:00 PM86 °FSunny.6 mph32%29.98 "Hg22 mi
1:00 PM84 °FSunny.7 mph32%30.00 "Hg18 mi
12:00 PM83 °FSunny.6 mph31%30.02 "Hg19 mi
11:00 AM79 °FSunny.2 mph40%30.03 "Hg25 mi
10:00 AM72 °FSunny.2 mph49%30.04 "Hg25 mi
9:00 AM67 °FSunny.3 mph59%30.05 "Hg19 mi
8:00 AM61 °FScattered clouds.3 mph72%30.05 "Hg19 mi
7:00 AM58 °FPartly sunny.1 mph78%30.06 "Hg16 mi
6:00 AM57 °FPartly sunny.2 mph80%30.06 "Hg17 mi
5:00 AM58 °FPassing clouds.3 mph79%30.05 "Hg17 mi
4:00 AM58 °FClear.2 mph77%30.06 "Hg17 mi
3:00 AM62 °FPassing clouds.2 mph66%30.06 "Hg25 mi
2:00 AM64 °FOvercast.2 mph63%30.06 "Hg25 mi
1:00 AM67 °FPassing clouds.2 mph53%30.06 "Hg28 mi
11:00 PM
Sun, Aug 2
68 °FPassing clouds.2 mph55%30.05 "Hg28 mi
10:00 PM71 °FOvercast.2 mph48%30.05 "Hg31 mi
Weather by CustomWeather, © 2015

See weather overviewHow to use our weather pages